View from above orbital plane
|
View from above satellite
|
Ground track
|
The orbit data is extracted from the following two-line orbital elements,
1 41872U 16062D 21023.16342982 .00002994 00000-0 12180-3 0 9999
2 41872 51.6826 294.5422 0002833 42.7944 317.3256 15.27700350231762
Epoch (UTC): | 23 January 2021 03:55:20 |
Eccentricity: | 0.0002833 |
inclination: | 51.6826° |
perigee height: | 481 km |
apogee height: | 484 km |
right ascension of ascending node: | 294.5422° |
argument of perigee: | 42.7944° |
revolutions per day: | 15.27700350 |
mean anomaly at epoch: | 317.3256° |
orbit number at epoch: | 23176 |
The dashed part of the orbit path shows where the satellite is in the earth's shadow,
|
|